Hourly Data Report for December 28, 2017

CARBERRY CS
MANITOBA

49°54'20.900" N
99°21'26.800" W
383.50 m
5010547
71170
WZE

Download Data

Hourly Data (December 2017)
Hourly Data Report for December 28, 2017
TIME
LST
Temp Definition
°C
Dew Point Definition
°C
Rel Hum Definition
%
Precip. Amount Definition
mm

Wind Dir Definition
10's deg

Wind Spd Definition
km/h
Visibility Definition
km
Stn Press Definition
kPa
Hmdx Definition


Wind Chill Definition


Weather Definition


00:00 -23.5 -27.3 71 0.0 6 9   98.04   -31 LegendNANA
01:00 -22.5 -26.2 72 0.0 6 7   97.99   -29 LegendNANA
02:00 -22.0 -25.4 74 0.0 7 6   97.95   -27 LegendNANA
03:00 -21.8 -24.9 76 0.0 8 10   97.92   -29 LegendNANA
04:00 -21.6 -24.5 77 0.2 3 6   97.95   -27 LegendNANA
05:00 -21.8 -24.7 77 0.0 1 6   97.94   -27 LegendNANA
06:00 -21.7 -24.7 77 0.2 36 5   97.94   -26 LegendNANA
07:00 -22.0 -25.0 76 0.0 33 8   97.97   -29 LegendNANA
08:00 -22.2 -25.3 76 0.0 32 6   97.96   -28 LegendNANA
09:00 -22.7 -25.7 76 0.0 29 7   98.01   -29 LegendNANA
10:00 -22.5 -25.7 75 0.2 28 9   98.07   -30 LegendNANA
11:00 -22.3 -26.4 69 0.0 31 11   98.11   -30 LegendNANA
12:00 -21.7 -26.1 68 0.0 32 12   98.11   -30 LegendNANA
13:00 -21.0 -25.9 65 0.0 31 7   98.10   -27 LegendNANA
14:00 -20.7 -25.9 63 0.0 32 6   98.08   -26 LegendNANA
15:00 -20.5 -26.1 61 0.0 33 4   98.07   -24 LegendNANA
16:00 -21.9 -27.1 62 0.0 26 11   98.10   -30 LegendNANA
17:00 -23.9 -28.2 68 0.0 26 11   98.14   -32 LegendNANA
18:00 -25.7 -29.7 70 0.0 26 14   98.16   -36 LegendNANA
19:00 -26.4 -30.2 70 0.0 26 15   98.18   -37 LegendNANA
20:00 -26.7 -30.3 72 0.0 25 17   98.17   -38 LegendNANA
21:00 -28.1 -31.3 74 0.0 27 10   98.11   -37 LegendNANA
22:00 -28.4 -31.9 72 0.0 26 15   98.13   -39 LegendNANA
23:00 -27.2 -30.7 72 0.0 26 21   98.13   -40 LegendNANA

Notes on Data Quality.

Legend

  • E = Estimated
  • M = Missing
  • NA = Not Available*
  • [empty] = Indicates an unobserved value
Date modified: